This is the latest recevied weather packets stored in our database for station/object KI6SYE. If no packets are shown the sender has not sent any weather packets the latest 10 day(s).
| Time | Temp. | Humidity | Pressure | Rain* | Wind** | Luminosity | Snow |
|---|---|---|---|---|---|---|---|
| 1788470726 | 23.33° C | 76% | 1012.8 hPa | 0 mm | - | 648 W/m² | - |
| 1788470421 | 23.33° C | 77% | 1012.9 hPa | 0 mm | - | 658 W/m² | - |
| 1788470115 | 23.33° C | 77% | 1012.7 hPa | 0 mm | - | 667 W/m² | - |
| 1788469813 | 23.33° C | 77% | 1012.9 hPa | 0 mm | - | 673 W/m² | - |
| 1788469507 | 23.33° C | 77% | 1012.9 hPa | 0 mm | - | 677 W/m² | - |
| 1788469202 | 23.89° C | 75% | 1012.9 hPa | 0 mm | - | 687 W/m² | - |
| 1788468896 | 23.33° C | 76% | 1012.6 hPa | 0 mm | - | 692 W/m² | - |
| 1788468596 | 23.33° C | 76% | 1012.9 hPa | 0 mm | - | 698 W/m² | - |
| 1788468292 | 23.89° C | 75% | 1013 hPa | 0 mm | - | 702 W/m² | - |
| 1788467988 | 23.89° C | 76% | 1013 hPa | 0 mm | - | 707 W/m² | - |
| 1788467683 | 23.89° C | 76% | 1013.2 hPa | 0 mm | - | 713 W/m² | - |
| 1788467382 | 23.33° C | 76% | 1013.2 hPa | 0 mm | - | 714 W/m² | - |
| 1788467079 | 23.33° C | 75% | 1012.9 hPa | 0 mm | - | 719 W/m² | - |
| 1788466773 | 23.33° C | 75% | 1013 hPa | 0 mm | - | 723 W/m² | - |
| 1788466468 | 23.89° C | 74% | 1013.3 hPa | 0 mm | - | 727 W/m² | - |
| 1788466167 | 23.33° C | 76% | 1013.2 hPa | 0 mm | - | 729 W/m² | - |
| 1788465862 | 22.78° C | 76% | 1013.2 hPa | 0 mm | - | 729 W/m² | - |
| 1788465552 | 23.33° C | 76% | 1013.3 hPa | 0 mm | - | 727 W/m² | - |
| 1788465248 | 23.33° C | 75% | 1013.4 hPa | 0 mm | - | 733 W/m² | - |
| 1788464943 | 23.33° C | 75% | 1013.5 hPa | 0 mm | - | 734 W/m² | - |
| 1788464638 | 23.33° C | 76% | 1013.6 hPa | 0 mm | - | 733 W/m² | - |
| 1788464333 | 23.33° C | 76% | 1013.4 hPa | 0 mm | - | 732 W/m² | - |
| 1788464030 | 23.33° C | 76% | 1013.6 hPa | 0 mm | - | 729 W/m² | - |
| 1788463724 | 23.33° C | 76% | 1013.7 hPa | 0 mm | - | 732 W/m² | - |
| 1788463420 | 22.78° C | 77% | 1013.7 hPa | 0 mm | - | 728 W/m² | - |
* Rain latest hour (hover to see other rain measurements)
** Current wind speed in m/s (hover to see current wind gust speed)